Thursday, August 28, 2014
01:07 UTC
  |  Log In   |  Register Free
Airport Search:

Lawrence Smith Memorial Airport
(KLRY)

Lawrence Smith Memorial Airport Diagram
No Airport Diagram Available

FAA data valid effective July 24, 2014 until September 18, 2014 (unless otherwise noted).

 
 
 
 
 
 
 
 
 
 
 
 
 
 

Current Aviation Weather for Lawrence Smith Memorial Airport (KLRY)

The most recent METAR observation for KLXT was updated at: 1753 UTC
METAR Summary (Translated METAR)
KLXT
281753Z AUTO 34008KT 10SM SCT036 BKN044 24/15 A3023 RMK AO2 SLP229 T02440150 10256 20167 50005
KMKC
(14.2 nm NW from KLXT)
281754Z 33007KT 10SM BKN035 BKN045 25/16 A3022 RMK AO2 SLP226 T02500161 10256 20178 51003
TAF Summary (Translated TAF)
KMKC
(14.2 nm NW from KLXT)
271720Z 2718/2818 09010KT P6SM SCT080 BKN250 FM280300 07008KT P6SM VCTS BKN040CB OVC080 FM281400 19011KT P6SM SCT050 BKN130
  Airport Weather Conditions for KLRY

Current weather conditions are
not available for LRY


The nearest NOAA weather station
is at LXT, (21 nm NW from LRY)
  
 Current Weather at LXT
81° F
Fair
East winds at 4.6 mph
LXT NOAA Radar

Pressure: 30.04 in
Humidity: 74%
Wind: East at 4.6 MPH (4 KT)
Dew Point: 72.0°F
Visibility: 10.00 mi


Airport Weather Forecast for KLRY

Translated METAR and TAF for KLXT
Translated METAR for KLXT (0101 UTC 28 August 2014)
found at http://aviationweather.gov/adds/metars/
 
METAR text: KLXT 280053Z AUTO 07005KT 10SM CLR 27/22 A3005 RMK AO2 SLP166 T02670222
Conditions at: KLXT (LEES SUMMIT MUNI, MO, US) observed 0053 UTC 28 August 2014
Temperature: 26.7°C (80°F)
Dewpoint: 22.2°C (72°F) [RH = 76%]
Pressure (altimeter): 30.05 inches Hg (1017.7 mb)
[Sea-level pressure: 1016.6 mb]
Winds: from the ENE (70 degrees) at 6 MPH (5 knots; 2.6 m/s)
Visibility: 10 or more miles (16+ km)
Ceiling: at least 12,000 feet AGL
Clouds: sky clear below 12,000 feet AGL
Weather: automated observation with no human augmentation;
there may or may not be significant weather present at this time
Translated TAF for KLXT

There is no translated TAF available for this airport

Find All Airport Services Find A Hotel Find A Rental Car Find A Golf Course Find A Restaurant $100 Hamburger



FBO's on the Field
FBO Company Facility Photos Services Transportation Aviation Fuel Prices: Prices include tax
Catering Weather Repair Courtesy Rental Type 100LL JetA JetA+ MOGAS 8087
 
City of Harrisonville

This FBO has not yet been rated
FS:Phillips66
Last Updated: Aug-01
Login to update fuel prices
SS:
Contact City of HarrisonvilleMore FBO Information
 
Add another FBO Facility Photos Catering Weather Repair Courtesy Rental Type 100LL JetA JetA+ MOGAS 8087
Services Transportation Aviation Fuel Prices: Prices include tax


GlobalAir.com Airport Resource Center model-print
model-print
model-print
model-print